Ottumwa, IA

3:20 PM CST on December 03, 2016 (GMT -0600)
Ottumwa Industrial

Weather History for KOTM - February, 2014

Change the Weather History Date:

Thursday, February 6, 2014

  Actual Average Record
Temperature  
Mean Temperature -2 °F 24 °F  
Max Temperature 7 °F 34 °F 62 °F (2009)
Min Temperature -12 °F 15 °F -17 °F (1978)
Degree Days  
Heating Degree Days 67 41  
Month to date heating degree days 338 247  
Since 1 July heating degree days 4502 4069  
Cooling Degree Days 0 0  
Month to date cooling degree days 0 0  
Year to date cooling degree days 0 0  
Moisture  
Dew Point -10 °F    
Average Humidity 67    
Maximum Humidity 79    
Minimum Humidity 55    
Precipitation  
Precipitation 0.00 in 0.04 in 0.76 in (1928)
Month to date precipitation 0.11 0.19  
Year to date precipitation 0.23 1.09  
Sea Level Pressure  
Sea Level Pressure 30.56 in    
Wind  
Wind Speed 9 mph (West)    
Max Wind Speed 16 mph    
Max Gust Speed 19 mph    
Visibility 10 miles    
Events      
T = Trace of Precipitation, MM = Missing Value Source: NWS Daily Summary

Daily Weather History Graph

Daily Weather History Graph

Search for Another Location

Airport or City:

Trip Planner

Search our weather history database for the weather conditions in past years. The results will help you decide how hot, cold, wet, or windy it might be!

Date:

Astronomy

Feb. 06, 2014 Rise Set
Actual Time 7:15 AM CST 5:32 PM CST
Civil Twilight 6:46 AM CST 6:01 PM CST
Nautical Twilight 6:13 AM CST 6:34 PM CST
Astronomical Twilight 5:41 AM CST 7:06 PM CST
Moon 11:05 AM CST (2/6) 12:31 AM CST (2/6)
Length of Visible Light 11h 15m
Length of Day
10h 17m
Waxing Crescent, 49% of the Moon is Illuminated
Feb 6
Waxing Crescent
Feb 6
First Quarter
Feb 14
Full
Feb 22
Last Quarter
Mar 1
New

Hourly Weather History & Observations

Time (CST) Temp. Windchill Dew Point Humidity Pressure Visibility Wind Dir Wind Speed Gust Speed Precip Events Conditions
12:53 AM -5.1 °F -21.5 °F -11.0 °F 76% 30.62 in 10.0 mi WNW 9.2 mph - N/A   Clear
1:53 AM -6.0 °F -22.6 °F -11.0 °F 79% 30.61 in 10.0 mi WNW 9.2 mph - N/A   Clear
2:53 AM -8.0 °F -25.0 °F -13.0 °F 79% 30.61 in 10.0 mi West 9.2 mph - N/A   Clear
3:53 AM -7.1 °F -22.8 °F -13.0 °F 75% 30.61 in 10.0 mi West 8.1 mph - N/A   Clear
4:53 AM -8.0 °F -23.9 °F -13.0 °F 79% 30.61 in 10.0 mi WNW 8.1 mph - N/A   Clear
5:53 AM -9.0 °F -26.4 °F -14.1 °F 79% 30.61 in 10.0 mi West 9.2 mph - N/A   Clear
6:53 AM -11.0 °F -27.6 °F -16.1 °F 78% 30.61 in 10.0 mi WSW 8.1 mph - N/A   Clear
7:53 AM -9.9 °F -26.3 °F -16.1 °F 74% 30.61 in 10.0 mi West 8.1 mph - N/A   Clear
8:53 AM -6.0 °F -22.6 °F -13.0 °F 72% 30.61 in 10.0 mi West 9.2 mph - N/A   Clear
9:53 AM -2.0 °F -19.6 °F -9.9 °F 69% 30.62 in 10.0 mi West 11.5 mph - N/A   Clear
10:53 AM 1.0 °F -15.8 °F -8.0 °F 66% 30.63 in 10.0 mi WNW 11.5 mph - N/A   Clear
11:53 AM 1.9 °F -16.2 °F -9.0 °F 60% 30.61 in 10.0 mi WNW 13.8 mph - N/A   Clear
12:53 PM 3.9 °F -12.2 °F -8.0 °F 58% 30.57 in 10.0 mi West 11.5 mph - N/A   Clear
1:53 PM 6.1 °F -10.2 °F -7.1 °F 55% 30.54 in 10.0 mi West 12.7 mph - N/A   Clear
2:53 PM 6.1 °F -8.7 °F -7.1 °F 55% 30.53 in 10.0 mi West 10.4 mph - N/A   Clear
3:53 PM 7.0 °F -7.5 °F -6.0 °F 55% 30.52 in 10.0 mi West 10.4 mph - N/A   Clear
4:53 PM 7.0 °F -6.6 °F -6.0 °F 55% 30.51 in 10.0 mi West 9.2 mph - N/A   Clear
5:53 PM 3.9 °F -6.9 °F -8.0 °F 58% 30.51 in 10.0 mi WSW 5.8 mph - N/A   Clear
6:53 PM 3.9 °F -5.3 °F -7.1 °F 60% 30.50 in 10.0 mi WSW 4.6 mph - N/A   Clear
7:53 PM -0.9 °F -14.1 °F -9.9 °F 66% 30.51 in 10.0 mi WSW 6.9 mph - N/A   Clear
8:53 PM -2.9 °F -17.7 °F -11.0 °F 68% 30.51 in 8.0 mi WSW 8.1 mph - N/A   Clear
9:53 PM -0.0 °F -15.3 °F -9.0 °F 66% 30.50 in 10.0 mi West 9.2 mph - N/A   Clear
10:53 PM -2.9 °F -18.8 °F -9.9 °F 72% 30.50 in 10.0 mi WSW 9.2 mph - N/A   Clear
11:53 PM -2.9 °F -18.8 °F -9.9 °F 72% 30.49 in 10.0 mi WSW 9.2 mph - N/A   Partly Cloudy